Dewpoint
61 55 53 56 57 56 55 54 53 49 52 51 51 52 53 52 55 55 50 50 50 51 52 54 56 57 58 61 61 61 64 65 66 69 68 68 67 67 68 68 67 67 69 71
57 53 52 53 52 54 53 53 50 42 48 51 52 53 53 54 55 56 51 49 49 49 50 53 55 56 59 62 61 62 63 65 66 68 68 67 68 68 67 68 67 67 68 69
55 53 57 54 50 50 46 50 41 36 50 51 53 50 52 53 54 55 53 52 50 49 49 51 53 54 57 61 62 63 62 68 66 68 69 70 69 69 68 68 67 67 68 69
58 57 52 50 50 50 48 40 38 37 40 47 47 37 41 49 48 52 53 53 51 49 49 51 51 52 56 60 62 62 64 64 68 69 68 67 67 67 67 68 68 68 68 68
49 51 50 46 49 47 44 42 41 40 43 41 42 37 38 41 42 49 50 53 53 52 51 50 50 52 55 57 60 61 63 64 66 69 68 68 67 68 69 69 68 69 69 70
53 54 49 47 47 46 44 40 42 44 41 35 40 37 37 37 37 38 41 51 54 54 53 52 51 52 54 57 59 62 63 64 66 68 68 68 68 67 69 70 70 72 73 71
46 46 47 47 45 43 35 37 38 38 36 36 41 39 40 42 39 39 39 42 51 53 54 55 54 55 57 58 62 63 65 66 67 68 69 68 68 70 71 71 71 72 73 73
44 41 46 45 44 34 35 36 35 31 30 34 40 36 33 41 41 39 41 41 44 44 50 52 56 57 58 59 60 63 64 66 67 69 71 71 70 70 71 72 73 73 73 72
46 44 47 44 39 26 25 24 27 28 32 32 34 33 37 39 40 41 38 40 42 45 49 53 55 57 58 59 59 58 60 66 67 69 70 72 72 73 73 74 73 74 73 72
49 43 43 42 37 26 28 24 12 19 27 30 31 31 32 39 38 39 36 41 44 48 49 50 52 52 55 57 55 54 60 67 68 70 71 74 74 74 74 73 73 73 73 72
51 44 41 42 31 23 23 20 18 19 28 28 28 27 32 38 35 36 41 42 43 49 51 53 55 55 55 55 55 54 69 71 72 73 74 74 74 74 73 73 73 72 72 72
50 45 39 36 39 36 23 22 23 21 18 24 26 30 37 42 43 43 44 48 50 51 54 54 54 56 57 57 57 56 72 72 73 73 73 72 73 74 74 74 74 73 72 72
50 46 37 32 29 29 28 26 37 22 24 24 25 30 44 42 43 46 49 50 51 51 52 53 54 62 63 64 66 68 69 70 72 69 65 66 66 69 73 74 74 73 73 73
53 43 34 31 28 29 30 26 25 24 21 24 37 40 41 39 42 45 49 49 48 49 50 53 56 58 67 68 68 64 67 68 68 66 65 64 62 65 73 73 73 73 72 71
37 34 31 28 29 27 28 27 26 28 26 24 39 38 39 40 45 48 48 46 45 47 51 57 62 66 66 67 66 66 63 66 66 63 62 63 65 67 69 70 71 71 71 70
29 26 32 30 30 29 28 27 30 39 40 40 38 37 41 42 45 43 43 42 44 48 55 58 61 62 63 64 65 65 64 65 63 60 61 63 63 63 67 69 69 71 70 69
32 32 30 32 33 30 27 29 35 39 39 38 37 40 42 41 41 40 38 41 46 53 55 59 60 62 64 61 63 60 62 64 62 61 61 63 63 64 65 66 68 69 69 66
32 32 32 30 30 25 30 39 40 41 42 42 42 42 42 42 41 42 43 51 53 54 55 56 60 62 63 64 64 62 62 64 64 63 63 65 65 66 66 68 67 66 67 66
40 40 41 34 35 37 39 42 40 40 43 45 42 42 43 44 42 42 52 55 55 56 57 57 58 61 61 62 64 64 64 64 65 65 64 66 66 66 66 66 66 66 65 63
45 44 41 43 38 36 42 46 44 44 41 47 42 41 43 43 39 43 50 55 56 57 57 55 57 59 57 59 63 62 62 62 62 64 63 64 64 64 64 64 64 65 64 64
40 46 44 45 41 42 45 45 45 36 39 45 42 43 45 42 44 47 55 56 57 57 56 55 57 56 56 58 61 58 60 59 60 64 63 64 64 64 64 64 64 65 65 64
35 36 39 44 41 37 44 43 39 45 48 44 45 46 47 50 51 54 56 55 54 54 54 54 56 55 56 57 59 59 60 60 62 62 64 64 63 63 63 63 64 63 63 63
26 33 34 39 43 47 49 48 49 47 45 46 47 50 51 51 51 53 55 54 54 54 55 55 57 56 56 58 59 59 60 62 62 62 61 60 62 62 63 62 62 62 63 62
31 39 42 43 46 48 49 49 50 50 49 50 51 51 50 49 51 53 54 55 55 55 56 56 57 57 60 60 58 60 62 62 62 60 61 60 60 61 62 62 63 63 62 62
32 40 44 46 48 47 47 49 49 50 52 50 51 52 51 51 52 53 53 54 55 57 57 59 59 59 60 60 57 57 60 62 62 61 60 60 60 61 61 62 63 63 63 63
44 38 41 44 46 47 46 47 51 51 52 52 53 52 51 50 51 52 53 55 56 56 56 57 59 59 59 60 57 56 60 62 61 60 60 61 61 61 62 62 62 59 57 55
Lifted_Index
-1 -1 -2 -2 -3 -3 -3 -3 -2 -2 -1 -1 -1 -1 -1 -1 -2 -2 -1 -1 -1 0 1 1 1 1 0 0 0 0 0 1 0 -0 -0 -1 -0 -0 -0 -0 -0 -0 -0 -1
-1 -1 -2 -2 -2 -3 -3 -3 -2 -2 -1 -2 -2 -1 -1 -1 -2 -2 -2 -2 -1 -0 0 0 0 0 0 -0 -0 0 0 0 0 -0 -1 -1 -1 -1 -1 -1 -1 -1 -1 -1
-2 -2 -2 -2 -2 -3 -3 -3 -2 -1 -2 -2 -2 -1 -1 -2 -2 -2 -2 -2 -2 -2 -1 -1 -1 -1 -1 -1 -1 -0 -1 -1 -1 -1 -1 -1 -1 -1 -1 -1 -2 -2 -1 -1
-2 -2 -2 -2 -2 -3 -2 -2 -1 -1 -1 -2 -1 -1 -1 -2 -2 -2 -2 -2 -2 -2 -2 -2 -2 -2 -2 -1 -1 -1 -1 -1 -1 -2 -2 -2 -2 -2 -2 -2 -3 -3 -3 -2
-1 -1 -2 -2 -2 -2 -2 -1 -1 -1 -1 -1 -0 -0 -0 -1 -1 -1 -1 -1 -1 -1 -1 -2 -2 -2 -2 -2 -1 -1 -1 -1 -2 -2 -2 -3 -3 -3 -3 -3 -4 -4 -4 -4
-1 -1 -1 -2 -2 -2 -1 -1 -1 -1 -1 -0 -0 -0 -0 -0 -0 -0 -0 -0 -1 -1 -1 -2 -2 -2 -2 -2 -2 -2 -2 -2 -2 -3 -3 -3 -3 -3 -4 -4 -4 -5 -5 -5
-1 -1 -1 -1 -2 -1 -1 -0 -0 -1 -1 -1 -1 -0 -0 0 0 1 1 0 -1 -2 -2 -2 -2 -2 -2 -2 -2 -3 -3 -3 -3 -3 -3 -3 -3 -4 -4 -5 -5 -6 -6 -7
-1 -1 -1 -1 -1 -0 0 0 -0 -1 -1 -1 -1 -0 0 0 0 0 1 0 -0 -1 -2 -3 -3 -2 -2 -2 -2 -3 -3 -3 -4 -4 -4 -4 -4 -4 -5 -5 -6 -7 -7 -7
-1 -0 -0 -0 0 0 0 0 -0 -0 -1 -0 -0 -0 0 0 -0 0 0 0 0 -0 -1 -2 -3 -3 -3 -3 -3 -3 -3 -3 -4 -4 -5 -5 -6 -6 -5 -6 -7 -7 -7 -7
-1 -0 -0 -0 0 0 0 0 -0 -0 -0 -0 -0 -0 -0 -0 -0 -0 -0 -0 0 0 -0 -1 -2 -2 -2 -2 -2 -2 -2 -3 -4 -5 -6 -7 -7 -7 -7 -7 -7 -7 -7 -7
-1 -1 -0 -0 0 0 0 0 0 -0 -0 -0 -0 -0 0 -0 -0 -0 -0 -0 -0 -0 -1 -1 -1 -1 -1 -1 -1 -1 -2 -4 -5 -6 -6 -6 -6 -7 -8 -7 -8 -8 -8 -8
-2 -1 -1 -0 -0 -0 -0 -0 0 -0 -0 -0 -0 0 0 0 0 -0 -0 -0 -0 -1 -1 -1 -1 -1 -1 -1 -1 -2 -4 -5 -6 -6 -6 -4 -4 -6 -7 -8 -8 -8 -8 -8
-2 -1 -1 -0 -0 -0 -0 -0 -0 -0 -0 -0 -0 0 0 0 0 0 -0 -0 -0 -0 -0 -1 -1 -2 -2 -3 -3 -4 -5 -5 -5 -5 -4 -2 -1 -3 -6 -8 -7 -8 -8 -8
-1 -1 -0 -0 -0 0 -0 -0 -0 -0 -0 -0 -0 -0 0 0 0 0 0 0 -0 0 0 -1 -1 -2 -3 -4 -4 -5 -5 -4 -3 -3 -3 -1 -0 -2 -5 -7 -7 -8 -8 -7
-0 -0 -0 -0 0 0 0 0 0 -0 -0 -0 -0 -0 0 0 0 0 0 0 0 0 0 -1 -1 -2 -3 -4 -4 -4 -3 -2 -2 -2 -1 0 0 -1 -4 -5 -6 -6 -7 -7
1 0 0 0 0 0 0 0 0 0 0 0 0 0 0 -0 0 1 1 1 1 1 0 -0 -1 -1 -1 -1 -1 -1 -1 -1 -1 -1 0 1 1 -0 -2 -3 -4 -5 -6 -6
0 0 0 0 0 1 1 1 1 1 1 1 1 1 0 0 1 1 2 2 1 1 1 0 0 0 0 0 0 -0 -1 -1 -1 -0 0 0 0 -0 -1 -2 -3 -4 -5 -5
-0 0 0 1 1 1 1 1 1 1 1 1 1 1 1 1 2 2 2 2 1 1 1 1 0 0 0 0 0 -0 -1 -1 -1 -1 -0 -1 -1 -1 -1 -2 -3 -3 -4 -4
-0 -0 0 0 1 1 1 1 1 1 2 1 1 1 1 1 2 2 2 2 2 2 1 1 1 1 1 1 0 -0 -0 -1 -1 -1 -1 -1 -1 -1 -1 -2 -2 -3 -3 -3
-0 -0 -0 0 1 1 1 1 1 1 1 1 1 0 1 1 2 2 2 2 2 2 2 2 2 2 2 1 1 0 0 -0 -0 -1 -1 -1 -1 -2 -2 -2 -2 -3 -3 -3
1 0 0 0 1 1 1 1 1 1 1 1 1 1 1 2 2 2 2 2 2 2 2 2 2 2 2 1 1 1 0 -0 -1 -1 -2 -2 -2 -2 -2 -2 -2 -3 -3 -3
1 1 1 1 1 1 2 2 2 2 2 1 1 1 2 2 2 2 2 2 2 3 2 2 2 2 1 1 1 0 -1 -1 -1 -2 -2 -2 -2 -2 -2 -2 -2 -2 -2 -2
1 2 2 2 2 2 2 2 2 2 2 2 2 2 2 2 2 2 2 2 2 2 2 2 1 1 1 0 0 -0 -1 -2 -2 -2 -2 -2 -2 -2 -2 -2 -2 -2 -2 -2
2 2 2 2 2 2 2 2 2 2 2 2 2 2 2 2 2 2 2 2 2 2 2 1 1 1 1 1 1 -0 -1 -2 -2 -2 -2 -2 -2 -2 -2 -2 -2 -2 -2 -2
3 3 2 2 2 2 3 3 3 3 2 2 2 2 3 3 3 3 2 2 2 2 2 1 1 1 1 1 1 1 0 -1 -2 -2 -2 -2 -2 -2 -2 -2 -2 -2 -2 -1
3 3 3 3 2 3 3 3 3 3 2 2 3 3 3 3 3 3 3 2 2 2 2 2 2 1 1 1 1 1 0 -1 -2 -2 -2 -2 -2 -2 -2 -2 -2 -2 -1 -1